This demonstration page uses our WeatherBlox Daily Observations layout. Learn more.

Left ArrowRight Arrow

39.01783, -85.05884

Hourly Observations for February 2, 2021

Temp ( °F °C ) Dew Point ( °F °C ) Humidity (%) Winds ( mph kmh ) Pressure ( in mb ) Visibility ( mi km ) Precip ( " mm )
12:26 am 00:26 Cloudy 27 -2.8 24 -4.4 89 89 NNW 10 17 30.12 1020 7 11 0.00 0.00
12:52 am 00:52 Cloudy 27 -2.8 23 -5 85 85 NW 8 13 30.09 1019 8 13 0.00 0.00
1:20 am 01:20 Cloudy 27 -2.8 22 -5.6 81 81 NW 7 11 30.12 1020 10 16 0.00 0.00
1:52 am 01:52 Cloudy 27 -2.8 21 -6.1 78 78 NW 9 15 30.08 1019 10 16 0.00 0.00
2:52 am 02:52 Cloudy 27 -2.8 18 -7.8 69 69 NNW 16 26 30.09 1019 10 16 0.00 0.00
3:10 am 03:10 Cloudy 27 -2.8 18 -7.8 69 69 NNW 18 30 30.14 1021 7 11 0.00 0.00
3:21 am 03:21 Cloudy 27 -2.8 17 -8.3 66 66 NNW 15 24 30.14 1021 7 11 0.00 0.00
3:37 am 03:37 Cloudy 26 -3.3 17 -8.3 69 69 NW 17 28 30.14 1021 7 11 0.00 0.00
3:52 am 03:52 Cloudy 25 -3.9 16 -8.9 69 69 NNW 14 22 30.10 1019 7 11 0.00 0.00
4:52 am 04:52 Partly Cloudy 22 -5.6 14 -10 71 71 NNW 13 20 30.10 1019 9 14 0.00 0.00
5:52 am 05:52 Clear 21 -6.1 12 -11.1 68 68 NW 10 17 30.10 1019 10 16 0.00 0.00
6:52 am 06:52 Clear 20 -6.7 12 -11.1 71 71 NW 12 19 30.11 1020 10 16 0.00 0.00
7:52 am 07:52 Sunny 19 -7.2 12 -11.1 74 74 NW 8 13 30.12 1020 10 16 0.00 0.00
8:52 am 08:52 Sunny 21 -6.1 12 -11.1 68 68 NW 10 17 30.13 1020 10 16 0.00 0.00
9:52 am 09:52 Sunny 23 -5 13 -10.6 65 65 NNW 14 22 30.12 1020 10 16 0.00 0.00
10:52 am 10:52 Sunny 26 -3.3 15 -9.4 63 63 NNW 17 28 30.13 1020 10 16 0.00 0.00
11:52 am 11:52 Sunny 28 -2.2 14 -10 56 56 NNW 18 30 30.13 1020 10 16 0.00 0.00
12:52 pm 12:52 Sunny 29 -1.7 14 -10 54 54 NW 16 26 30.11 1020 9 14 0.00 0.00
1:52 pm 13:52 Sunny 31 -0.6 15 -9.4 52 52 NW 18 30 30.10 1019 10 16 0.00 0.00
2:52 pm 14:52 Sunny 32 0 15 -9.4 50 50 NW 21 33 30.09 1019 10 16 0.00 0.00
3:52 pm 15:52 Mostly Sunny 33 0.6 16 -8.9 49 49 NW 17 28 30.09 1019 10 16 0.00 0.00
4:52 pm 16:52 Mostly Sunny 32 0 18 -7.8 56 56 NNW 14 22 30.08 1019 10 16 0.00 0.00
5:52 pm 17:52 Mostly Sunny 31 -0.6 19 -7.2 61 61 NW 17 28 30.09 1019 10 16 0.00 0.00
6:35 pm 18:35 Mostly Cloudy 30 -1.1 20 -6.7 66 66 NW 14 22 30.12 1020 10 16 0.00 0.00
6:52 pm 18:52 Mostly Cloudy 30 -1.1 20 -6.7 66 66 NW 10 17 30.10 1019 10 16 0.00 0.00
7:46 pm 19:46 Partly Cloudy 28 -2 21 -6 74 74 NW 15 24 30.13 1020 10 16 0.00 0.00
7:52 pm 19:52 Partly Cloudy 29 -1.7 21 -6.1 72 72 NW 14 22 30.10 1019 10 16 0.00 0.00
8:52 pm 20:52 Clear 28 -2.2 21 -6.1 75 75 NW 14 22 30.10 1019 10 16 0.00 0.00
9:40 pm 21:40 Mostly Cloudy 27 -2.8 21 -6.1 78 78 NW 12 19 30.14 1021 10 16 0.00 0.00
9:52 pm 21:52 Cloudy 28 -2.2 21 -6.1 75 75 NW 12 19 30.11 1020 10 16 0.00 0.00
10:52 pm 22:52 Mostly Cloudy 28 -2.2 21 -6.1 75 75 NW 10 17 30.10 1019 10 16 0.00 0.00
11:35 pm 23:35 Partly Cloudy 28 -2.2 21 -6.1 75 75 NW 14 22 30.14 1021 10 16 0.00 0.00
11:52 pm 23:52 Partly Cloudy 27 -2.8 21 -6.1 78 78 WNW 10 17 30.11 1020 10 16 0.00 0.00

Powered by AerisWeather